Powrót do katalogu

STARLINK-4209

AktywnyŁącznośćVLEO
NORAD 52855·PAYLOAD·🇺🇸 United States

Wystrzelony Jun 17, 2022 z Cape Canaveral Space Force Station

Loading…

Następne Przeloty (najbliższe 24 godziny)

TLE

ŚwieżeSource: CelesTrak SupGP

Epoka: Sep 15, 2026, 01:53 UTC

1 52855C 22062AB  26258.07895833 -.00033205  00000+0 -10677-2 0  2588
2 52855  53.1573 242.0481 0001373  94.2500 338.1216 15.31720444    12

Śledź STARLINK-4209 w czasie rzeczywistym z AllMySat

Download on the App Store